Preston, Minnesota, United States (55965)
Lat: 43.67N, Lon: 92.08W
Wx Zone: MNZ095
Local Info
Past Weather Observations for Wednesday, September 10, 2014

NOTE: This archive is for the closest National Weather Service station to Preston. Information may differ from the station used for current weather conditions.

Click here for Long-term Archive

Time Weather Temperature Dewpoint Humidity Pressure Winds Precip Visibility
23:56
Overcast
45°F / 7°C 43°F / 6°C 93% 30.06 in
(1018 mb)
N 12.7 mph
(N 20 kph)
- 10SM
23:36
Overcast
45°F / 7°C 43°F / 6°C 93% 30.06 in
(1018 mb)
N 11.5 mph
(N 19 kph)
- 10SM
23:16
Overcast
45°F / 7°C 45°F / 7°C 100% 30.06 in
(1018 mb)
N 11.5 mph
(N 19 kph)
- 10SM
22:56
Overcast
45°F / 7°C 45°F / 7°C 100% 30.06 in
(1018 mb)
N 13.8 mph
(N 22 kph)
- 10SM
22:36
Overcast
45°F / 7°C 45°F / 7°C 100% 30.04 in
(1017 mb)
N 11.5 mph
(N 19 kph)
- 10SM
22:15
Overcast
45°F / 7°C 45°F / 7°C 100% 30.04 in
(1017 mb)
N 16.1 mph
(N 26 kph)
- 10SM
21:56
Overcast
46°F / 8°C 45°F / 7°C 93% 30.04 in
(1017 mb)
N 17.3 mph
(N 28 kph)
- 10SM
21:36
Overcast
46°F / 8°C 45°F / 7°C 93% 30.04 in
(1017 mb)
N 13.8 mph
(N 22 kph)
- 10SM
21:15
Overcast
46°F / 8°C 45°F / 7°C 93% 30.01 in
(1016 mb)
N 12.7 mph
(N 20 kph)
- 10SM
20:56
Overcast
46°F / 8°C 45°F / 7°C 93% 30.01 in
(1016 mb)
N 15 mph
(N 24 kph)
- 10SM
20:36
Overcast
46°F / 8°C 45°F / 7°C 93% 30.01 in
(1016 mb)
N 16.1 mph
(N 26 kph)
- 10SM
20:15
Overcast
46°F / 8°C 46°F / 8°C 100% 30.01 in
(1016 mb)
N 15 mph
(N 24 kph)
- 10SM
19:56
Overcast
46°F / 8°C 45°F / 7°C 93% 30.01 in
(1016 mb)
N 12.7 mph
(N 20 kph)
- 10SM
19:36
Overcast
46°F / 8°C 46°F / 8°C 100% 29.98 in
(1015 mb)
N 16.1 mph
(N 26 kph)
- 10SM
19:15
Overcast
46°F / 8°C 46°F / 8°C 100% 29.98 in
(1015 mb)
N 18.4 mph
(N 30 kph)
- 10SM
18:55
Overcast
48°F / 9°C 46°F / 8°C 94% 29.98 in
(1015 mb)
N 15 mph
(N 24 kph)
- 10SM
18:36
Overcast
48°F / 9°C 46°F / 8°C 94% 29.95 in
(1014 mb)
N 16.1 mph
(N 26 kph)
- 10SM
18:16
Overcast
48°F / 9°C 46°F / 8°C 94% 29.95 in
(1014 mb)
N 18.4 mph
(N 30 kph)
- 10SM
17:55
Overcast
48°F / 9°C 48°F / 9°C 100% 29.95 in
(1014 mb)
N 18.4 mph
(N 30 kph)
- 10SM
17:36
Overcast
48°F / 9°C 48°F / 9°C 100% 29.92 in
(1013 mb)
N 15 mph
(N 24 kph)
- 10SM
17:15
Overcast
50°F / 10°C 48°F / 9°C 94% 29.92 in
(1013 mb)
N 12.7 mph
(N 20 kph)
- 10SM
16:55
Overcast
50°F / 10°C 48°F / 9°C 94% 29.89 in
(1012 mb)
N 16.1 mph
(N 26 kph)
- 10SM
16:36
Overcast
50°F / 10°C 50°F / 10°C 100% 29.89 in
(1012 mb)
N 21.9 mph
(N 35 kph)
- 10SM
16:15
Overcast
52°F / 11°C 50°F / 10°C 94% 29.89 in
(1012 mb)
NNW 18.4 mph
(NNW 30 kph)
- 10SM
15:55
Overcast
52°F / 11°C 50°F / 10°C 94% 29.86 in
(1011 mb)
N 18.4 mph
(N 30 kph)
- 10SM
15:36
Overcast
52°F / 11°C 50°F / 10°C 94% 29.83 in
(1010 mb)
N 19.6 mph
(N 32 kph)
- 10SM
15:15
Overcast
52°F / 11°C 50°F / 10°C 94% 29.83 in
(1010 mb)
NNW 17.3 mph
(NNW 28 kph)
- 10SM
14:56
Overcast
52°F / 11°C 50°F / 10°C 94% 29.83 in
(1010 mb)
N 17.3 mph
(N 28 kph)
- 10SM
14:35
Overcast
52°F / 11°C 52°F / 11°C 100% 29.8 in
(1009 mb)
NNW 19.6 mph
(NNW 32 kph)
- 10SM
14:16
Overcast
52°F / 11°C 52°F / 11°C 100% 29.8 in
(1009 mb)
NNW 18.4 mph
(NNW 30 kph)
- 10SM
13:56
Overcast
54°F / 12°C 52°F / 11°C 94% 29.8 in
(1009 mb)
NNW 20.7 mph
(NNW 33 kph)
- 10SM
13:36
Overcast
52°F / 11°C 52°F / 11°C 100% 29.8 in
(1009 mb)
N 18.4 mph
(N 30 kph)
- 10SM
13:16
Overcast
54°F / 12°C 54°F / 12°C 100% 29.77 in
(1008 mb)
NNW 17.3 mph
(NNW 28 kph)
- 10SM
12:56
Overcast
54°F / 12°C 54°F / 12°C 100% 29.77 in
(1008 mb)
NNW 20.7 mph
(NNW 33 kph)
- 10SM
12:35
Overcast
54°F / 12°C 54°F / 12°C 100% 29.77 in
(1008 mb)
N 15 mph
(N 24 kph)
- 10SM
12:16
Overcast
54°F / 12°C 54°F / 12°C 100% 29.74 in
(1007 mb)
N 21.9 mph
(N 35 kph)
- 10SM
11:56
Overcast
54°F / 12°C 54°F / 12°C 100% 29.74 in
(1007 mb)
N 17.3 mph
(N 28 kph)
- 10SM
11:35
Overcast
55°F / 13°C 55°F / 13°C 100% 29.71 in
(1006 mb)
N 12.7 mph
(N 20 kph)
- 10SM
11:16
Overcast
54°F / 12°C 55°F / 13°C N/A 29.71 in
(1006 mb)
NNW 13.8 mph
(NNW 22 kph)
- 7SM
10:55
Overcast
Fog And Mist
55°F / 13°C 55°F / 13°C 100% 29.68 in
(1005 mb)
NNW 18.4 mph
(NNW 30 kph)
- 5SM
10:35
Overcast
57°F / 14°C 57°F / 14°C 100% 29.68 in
(1005 mb)
NNW 21.9 mph
(NNW 35 kph)
- 10SM
10:16
Overcast
57°F / 14°C 57°F / 14°C 100% 29.65 in
(1004 mb)
N 21.9 mph
(N 35 kph)
- 10SM
09:56
Overcast
57°F / 14°C 57°F / 14°C 100% 29.65 in
(1004 mb)
NNW 20.7 mph
(NNW 33 kph)
- 7SM
09:35
Overcast
59°F / 15°C 59°F / 15°C 100% 29.62 in
(1003 mb)
NNW 20.7 mph
(NNW 33 kph)
- 10SM
09:15
Overcast
59°F / 15°C 61°F / 16°C N/A 29.62 in
(1003 mb)
N 20.7 mph
(N 33 kph)
- 10SM
08:56
Overcast
61°F / 16°C 63°F / 17°C N/A 29.62 in
(1003 mb)
NNW 19.6 mph
(NNW 32 kph)
- 10SM
08:36
Overcast
Fog And Mist
64°F / 18°C 64°F / 18°C 100% 29.59 in
(1002 mb)
NNW 17.3 mph
(NNW 28 kph)
- 5SM
08:15
Overcast
Fog And Mist
64°F / 18°C 64°F / 18°C 100% 29.59 in
(1002 mb)
N 16.1 mph
(N 26 kph)
- 2SM
07:56
Overcast
Fog And Mist
64°F / 18°C 64°F / 18°C 100% 29.59 in
(1002 mb)
N 12.7 mph
(N 20 kph)
- 2 1/2SM
07:35
Overcast
Fog And Mist
64°F / 18°C 64°F / 18°C 100% 29.59 in
(1002 mb)
N 12.7 mph
(N 20 kph)
- 4SM
07:16
Overcast
Fog And Mist
63°F / 17°C 63°F / 17°C 100% 29.59 in
(1002 mb)
N 12.7 mph
(N 20 kph)
- 4SM
06:56
Overcast
Light Rain
63°F / 17°C 63°F / 17°C 100% 29.56 in
(1001 mb)
N 12.7 mph
(N 20 kph)
0.03 in
(0.76 mm)
2SM
06:35
Overcast
Light Rain
63°F / 17°C 63°F / 17°C 100% 29.56 in
(1001 mb)
N 12.7 mph
(N 20 kph)
0.02 in
(0.51 mm)
1 3/4SM
06:16
Overcast
Drizzle
63°F / 17°C 63°F / 17°C 100% 29.56 in
(1001 mb)
N 12.7 mph
(N 20 kph)
0.01 in
(0.25 mm)
2 1/2SM
05:56
Overcast
Drizzle
63°F / 17°C 63°F / 17°C 100% 29.56 in
(1001 mb)
N 8.1 mph
(N 13 kph)
0.11 in
(2.79 mm)
1 3/4SM
05:36
Overcast
Drizzle
64°F / 18°C 64°F / 18°C 100% 29.56 in
(1001 mb)
N 5.8 mph
(N 9 kph)
0.08 in
(2.03 mm)
2SM
05:15
Overcast
Rain
64°F / 18°C 64°F / 18°C 100% 29.56 in
(1001 mb)
N 4.6 mph
(N 7 kph)
0.05 in
(1.27 mm)
1 1/2SM
04:56
Overcast
Light Rain
64°F / 18°C 64°F / 18°C 100% 29.56 in
(1001 mb)
Calm 0.07 in
(1.78 mm)
2SM
04:35
Overcast
Light Rain
64°F / 18°C 64°F / 18°C 100% 29.59 in
(1002 mb)
Calm 0.04 in
(1.02 mm)
3SM
04:16
Overcast
Light Rain
64°F / 18°C 64°F / 18°C 100% 29.59 in
(1002 mb)
NE 4.6 mph
(NE 7 kph)
0.01 in
(0.25 mm)
4SM
03:56
Overcast
Drizzle
64°F / 18°C 64°F / 18°C 100% 29.59 in
(1002 mb)
NE 4.6 mph
(NE 7 kph)
0.15 in
(3.81 mm)
2 1/2SM
03:35
Overcast
Light Rain
64°F / 18°C 64°F / 18°C 100% 29.59 in
(1002 mb)
NE 4.6 mph
(NE 7 kph)
0.13 in
(3.30 mm)
2 1/2SM
03:15
Overcast
Heavy Rain
64°F / 18°C 64°F / 18°C 100% 29.59 in
(1002 mb)
NE 3.5 mph
(NE 6 kph)
0.09 in
(2.29 mm)
2SM
02:56
Overcast
Rain
64°F / 18°C 64°F / 18°C 100% 29.62 in
(1003 mb)
NE 3.5 mph
(NE 6 kph)
0.20 in
(5.08 mm)
3SM
02:36
Overcast
Rain
64°F / 18°C 64°F / 18°C 100% 29.62 in
(1003 mb)
NE 4.6 mph
(NE 7 kph)
0.16 in
(4.06 mm)
3SM
02:15
Rain
64°F / 18°C 64°F / 18°C 100% 29.62 in
(1003 mb)
NE 4.6 mph
(NE 7 kph)
0.09 in
(2.29 mm)
2SM
01:56
Overcast
Rain
64°F / 18°C 64°F / 18°C 100% 29.62 in
(1003 mb)
ENE 4.6 mph
(ENE 7 kph)
0.41 in
(10.41 mm)
3SM
01:36
Overcast
Heavy Rain
64°F / 18°C 64°F / 18°C 100% 29.65 in
(1004 mb)
E 8.1 mph
(E 13 kph)
0.32 in
(8.13 mm)
2SM
01:15
Overcast
Heavy Rain
64°F / 18°C 64°F / 18°C 100% 29.65 in
(1004 mb)
E 6.9 mph
(E 11 kph)
0.12 in
(3.05 mm)
2SM
00:55
Overcast
Heavy Rain
64°F / 18°C 64°F / 18°C 100% 29.65 in
(1004 mb)
NE 6.9 mph
(NE 11 kph)
0.36 in
(9.14 mm)
2SM
00:36
Overcast
Heavy Rain
64°F / 18°C 64°F / 18°C 100% 29.68 in
(1005 mb)
N 5.8 mph
(N 9 kph)
0.20 in
(5.08 mm)
2SM
00:15
Overcast
Rain
64°F / 18°C 64°F / 18°C 100% 29.71 in
(1006 mb)
NNE 5.8 mph
(NNE 9 kph)
0.06 in
(1.52 mm)
2SM
Time Weather Temperature Dewpoint Humidity Pressure Winds Precip Visibility


Weather for websites

WeatherForYou.com, LLC is not responsible for any damages or problems caused by this service. Current weather conditions are obtained from the closest station including government and personal stations which may have varying degrees of accuracy. Weather forecasts are derived from the NOAA NDFD. Like all things, this site belongs to Jesus Christ... He just trusts me to maintain it. If you have any questions or comments email webmaster@weatherforyou.com

Copyright © 2014, WeatherForYou.com LLC. All rights reserved.